﻿測定場所 (Monitoring sites),日付 (Measurement date),時間 (Measurement time),線量率 最大値 (max) μGy/h,線量率 最小値 (min) μGy/h,線量率 平均値 (average) μGy/h,
大田 (Ota),2013-03-03,23:01～24:00,0.0538,0.0469,0.0502,
大田 (Ota),2013-03-03,22:01～23:00,0.0543,0.0478,0.0507,
大田 (Ota),2013-03-03,21:01～22:00,0.0566,0.0481,0.0514,
大田 (Ota),2013-03-03,20:01～21:00,0.0559,0.0481,0.0522,
大田 (Ota),2013-03-03,19:01～20:00,0.0555,0.0482,0.0525,
大田 (Ota),2013-03-03,18:01～19:00,0.0531,0.0469,0.0505,
大田 (Ota),2013-03-03,17:01～18:00,0.0546,0.0459,0.0496,
大田 (Ota),2013-03-03,16:01～17:00,0.0518,0.0463,0.0498,
大田 (Ota),2013-03-03,15:01～16:00,0.0525,0.0463,0.0498,
大田 (Ota),2013-03-03,14:01～15:00,0.0528,0.0459,0.0498,
大田 (Ota),2013-03-03,13:01～14:00,0.0535,0.0468,0.0497,
大田 (Ota),2013-03-03,12:01～13:00,0.0549,0.0474,0.0506,
大田 (Ota),2013-03-03,11:01～12:00,0.0539,0.0469,0.0500,
大田 (Ota),2013-03-03,10:01～11:00,0.0559,0.0458,0.0500,
大田 (Ota),2013-03-03,09:01～10:00,0.0534,0.0464,0.0500,
大田 (Ota),2013-03-03,08:01～09:00,0.0532,0.0465,0.0499,
大田 (Ota),2013-03-03,07:01～08:00,0.0537,0.0460,0.0495,
大田 (Ota),2013-03-03,06:01～07:00,0.0522,0.0445,0.0495,
大田 (Ota),2013-03-03,05:01～06:00,0.0535,0.0463,0.0496,
大田 (Ota),2013-03-03,04:01～05:00,0.0522,0.0463,0.0496,
大田 (Ota),2013-03-03,03:01～04:00,0.0521,0.0464,0.0496,
大田 (Ota),2013-03-03,02:01～03:00,0.0531,0.0469,0.0499,
大田 (Ota),2013-03-03,01:01～02:00,0.0555,0.0468,0.0495,
大田 (Ota),2013-03-03,00:01～01:00,0.0536,0.0459,0.0496,
大田 (Ota),2013-03-02,23:01～24:00,0.0529,0.0475,0.0498,
大田 (Ota),2013-03-02,22:01～23:00,0.0530,0.0472,0.0502,
大田 (Ota),2013-03-02,21:01～22:00,0.0542,0.0474,0.0501,
大田 (Ota),2013-03-02,20:01～21:00,0.0522,0.0470,0.0501,
大田 (Ota),2013-03-02,19:01～20:00,0.0532,0.0473,0.0503,
大田 (Ota),2013-03-02,18:01～19:00,0.0524,0.0465,0.0500,
大田 (Ota),2013-03-02,17:01～18:00,0.0547,0.0460,0.0503,
大田 (Ota),2013-03-02,16:01～17:00,0.0540,0.0458,0.0502,
大田 (Ota),2013-03-02,15:01～16:00,0.0563,0.0465,0.0506,
大田 (Ota),2013-03-02,14:01～15:00,0.0540,0.0477,0.0508,
大田 (Ota),2013-03-02,13:01～14:00,0.0550,0.0483,0.0510,
大田 (Ota),2013-03-02,12:01～13:00,0.0545,0.0482,0.0509,
大田 (Ota),2013-03-02,11:01～12:00,0.0541,0.0466,0.0508,
大田 (Ota),2013-03-02,10:01～11:00,0.0537,0.0463,0.0505,
大田 (Ota),2013-03-02,09:01～10:00,0.0536,0.0473,0.0500,
大田 (Ota),2013-03-02,08:01～09:00,0.0545,0.0468,0.0502,
大田 (Ota),2013-03-02,07:01～08:00,0.0538,0.0465,0.0499,
大田 (Ota),2013-03-02,06:01～07:00,0.0520,0.0468,0.0495,
大田 (Ota),2013-03-02,05:01～06:00,0.0542,0.0455,0.0498,
大田 (Ota),2013-03-02,04:01～05:00,0.0527,0.0470,0.0496,
大田 (Ota),2013-03-02,03:01～04:00,0.0532,0.0456,0.0498,
大田 (Ota),2013-03-02,02:01～03:00,0.0529,0.0466,0.0500,
大田 (Ota),2013-03-02,01:01～02:00,0.0553,0.0475,0.0510,
大田 (Ota),2013-03-02,00:01～01:00,0.0578,0.0493,0.0529,
大田 (Ota),2013-03-01,23:01～24:00,0.0693,0.0541,0.0622,
大田 (Ota),2013-03-01,22:01～23:00,0.0761,0.0619,0.0691,
大田 (Ota),2013-03-01,21:01～22:00,0.0767,0.0653,0.0705,
大田 (Ota),2013-03-01,20:01～21:00,0.0691,0.0579,0.0639,
大田 (Ota),2013-03-01,19:01～20:00,0.0624,0.0491,0.0555,
大田 (Ota),2013-03-01,18:01～19:00,0.0528,0.0453,0.0495,
大田 (Ota),2013-03-01,17:01～18:00,0.0533,0.0455,0.0495,
大田 (Ota),2013-03-01,16:01～17:00,0.0528,0.0470,0.0500,
大田 (Ota),2013-03-01,15:01～16:00,0.0530,0.0462,0.0499,
大田 (Ota),2013-03-01,14:01～15:00,0.0528,0.0457,0.0495,
大田 (Ota),2013-03-01,13:01～14:00,0.0541,0.0468,0.0499,
大田 (Ota),2013-03-01,12:01～13:00,0.0524,0.0457,0.0493,
大田 (Ota),2013-03-01,11:01～12:00,0.0536,0.0473,0.0495,
大田 (Ota),2013-03-01,10:01～11:00,0.0531,0.0462,0.0495,
大田 (Ota),2013-03-01,09:01～10:00,0.0515,0.0468,0.0493,
大田 (Ota),2013-03-01,08:01～09:00,0.0526,0.0467,0.0491,
大田 (Ota),2013-03-01,07:01～08:00,0.0530,0.0460,0.0496,
大田 (Ota),2013-03-01,06:01～07:00,0.0532,0.0455,0.0495,
大田 (Ota),2013-03-01,05:01～06:00,0.0531,0.0463,0.0495,
大田 (Ota),2013-03-01,04:01～05:00,0.0519,0.0455,0.0493,
大田 (Ota),2013-03-01,03:01～04:00,0.0550,0.0465,0.0499,
大田 (Ota),2013-03-01,02:01～03:00,0.0542,0.0473,0.0503,
大田 (Ota),2013-03-01,01:01～02:00,0.0527,0.0463,0.0497,
大田 (Ota),2013-03-01,00:01～01:00,0.0530,0.0453,0.0495,
大田 (Ota),2013-02-28,23:01～24:00,0.0525,0.0456,0.0494,
大田 (Ota),2013-02-28,22:01～23:00,0.0536,0.0465,0.0495,
大田 (Ota),2013-02-28,21:01～22:00,0.0530,0.0451,0.0493,
大田 (Ota),2013-02-28,20:01～21:00,0.0541,0.0459,0.0493,
大田 (Ota),2013-02-28,19:01～20:00,0.0525,0.0467,0.0495,
大田 (Ota),2013-02-28,18:01～19:00,0.0524,0.0465,0.0496,
大田 (Ota),2013-02-28,17:01～18:00,0.0544,0.0469,0.0494,
大田 (Ota),2013-02-28,16:01～17:00,0.0533,0.0468,0.0497,
大田 (Ota),2013-02-28,15:01～16:00,0.0528,0.0462,0.0499,
大田 (Ota),2013-02-28,14:01～15:00,0.0535,0.0460,0.0498,
大田 (Ota),2013-02-28,13:01～14:00,0.0534,0.0469,0.0501,
大田 (Ota),2013-02-28,12:01～13:00,0.0546,0.0472,0.0500,
大田 (Ota),2013-02-28,11:01～12:00,0.0541,0.0469,0.0504,
大田 (Ota),2013-02-28,10:01～11:00,0.0546,0.0477,0.0503,
大田 (Ota),2013-02-28,09:01～10:00,0.0527,0.0474,0.0501,
大田 (Ota),2013-02-28,08:01～09:00,0.0542,0.0452,0.0497,
大田 (Ota),2013-02-28,07:01～08:00,0.0540,0.0460,0.0504,
大田 (Ota),2013-02-28,06:01～07:00,0.0540,0.0452,0.0501,
大田 (Ota),2013-02-28,05:01～06:00,0.0532,0.0463,0.0502,
大田 (Ota),2013-02-28,04:01～05:00,0.0522,0.0463,0.0499,
大田 (Ota),2013-02-28,03:01～04:00,0.0537,0.0466,0.0499,
大田 (Ota),2013-02-28,02:01～03:00,0.0526,0.0462,0.0494,
大田 (Ota),2013-02-28,01:01～02:00,0.0524,0.0442,0.0486,
大田 (Ota),2013-02-28,00:01～01:00,0.0524,0.0460,0.0492,
大田 (Ota),2013-02-27,23:01～24:00,0.0519,0.0451,0.0489,
大田 (Ota),2013-02-27,22:01～23:00,0.0512,0.0453,0.0485,
大田 (Ota),2013-02-27,21:01～22:00,0.0511,0.0457,0.0486,
大田 (Ota),2013-02-27,20:01～21:00,0.0534,0.0450,0.0490,
大田 (Ota),2013-02-27,19:01～20:00,0.0525,0.0450,0.0489,
大田 (Ota),2013-02-27,18:01～19:00,0.0518,0.0449,0.0487,
大田 (Ota),2013-02-27,17:01～18:00,0.0537,0.0456,0.0489,
大田 (Ota),2013-02-27,16:01～17:00,0.0527,0.0468,0.0492,
大田 (Ota),2013-02-27,15:01～16:00,0.0524,0.0459,0.0492,
大田 (Ota),2013-02-27,14:01～15:00,0.0521,0.0456,0.0489,
大田 (Ota),2013-02-27,13:01～14:00,0.0534,0.0460,0.0497,
大田 (Ota),2013-02-27,12:01～13:00,0.0545,0.0468,0.0501,
大田 (Ota),2013-02-27,11:01～12:00,0.0546,0.0450,0.0495,
大田 (Ota),2013-02-27,10:01～11:00,0.0538,0.0469,0.0500,
大田 (Ota),2013-02-27,09:01～10:00,0.0555,0.0470,0.0517,
大田 (Ota),2013-02-27,08:01～09:00,0.0589,0.0481,0.0531,
大田 (Ota),2013-02-27,07:01～08:00,0.0649,0.0550,0.0587,
大田 (Ota),2013-02-27,06:01～07:00,0.0621,0.0550,0.0593,
大田 (Ota),2013-02-27,05:01～06:00,0.0614,0.0530,0.0567,
大田 (Ota),2013-02-27,04:01～05:00,0.0588,0.0514,0.0555,
大田 (Ota),2013-02-27,03:01～04:00,0.0586,0.0482,0.0532,
大田 (Ota),2013-02-27,02:01～03:00,0.0552,0.0474,0.0516,
大田 (Ota),2013-02-27,01:01～02:00,0.0536,0.0464,0.0507,
大田 (Ota),2013-02-27,00:01～01:00,0.0529,0.0461,0.0498,
大田 (Ota),2013-02-26,23:01～24:00,0.0532,0.0460,0.0499,
大田 (Ota),2013-02-26,22:01～23:00,0.0537,0.0465,0.0499,
大田 (Ota),2013-02-26,21:01～22:00,0.0536,0.0458,0.0494,
大田 (Ota),2013-02-26,20:01～21:00,0.0524,0.0461,0.0497,
大田 (Ota),2013-02-26,19:01～20:00,0.0530,0.0470,0.0497,
大田 (Ota),2013-02-26,18:01～19:00,0.0521,0.0465,0.0495,
大田 (Ota),2013-02-26,17:01～18:00,0.0526,0.0471,0.0499,
大田 (Ota),2013-02-26,16:01～17:00,0.0533,0.0471,0.0498,
大田 (Ota),2013-02-26,15:01～16:00,0.0544,0.0461,0.0502,
大田 (Ota),2013-02-26,14:01～15:00,0.0536,0.0463,0.0494,
大田 (Ota),2013-02-26,13:01～14:00,0.0541,0.0469,0.0501,
大田 (Ota),2013-02-26,12:01～13:00,0.0545,0.0460,0.0501,
大田 (Ota),2013-02-26,11:01～12:00,0.0534,0.0460,0.0495,
大田 (Ota),2013-02-26,10:01～11:00,0.0542,0.0460,0.0499,
大田 (Ota),2013-02-26,09:01～10:00,0.0538,0.0471,0.0499,
大田 (Ota),2013-02-26,08:01～09:00,0.0533,0.0465,0.0496,
大田 (Ota),2013-02-26,07:01～08:00,0.0524,0.0465,0.0494,
大田 (Ota),2013-02-26,06:01～07:00,0.0534,0.0454,0.0493,
大田 (Ota),2013-02-26,05:01～06:00,0.0532,0.0461,0.0495,
大田 (Ota),2013-02-26,04:01～05:00,0.0529,0.0451,0.0495,
大田 (Ota),2013-02-26,03:01～04:00,0.0528,0.0464,0.0499,
大田 (Ota),2013-02-26,02:01～03:00,0.0517,0.0458,0.0493,
大田 (Ota),2013-02-26,01:01～02:00,0.0521,0.0456,0.0488,
大田 (Ota),2013-02-26,00:01～01:00,0.0525,0.0467,0.0494,
大田 (Ota),2013-02-25,23:01～24:00,0.0524,0.0456,0.0492,
大田 (Ota),2013-02-25,22:01～23:00,0.0518,0.0463,0.0491,
大田 (Ota),2013-02-25,21:01～22:00,0.0521,0.0434,0.0493,
大田 (Ota),2013-02-25,20:01～21:00,0.0532,0.0461,0.0494,
大田 (Ota),2013-02-25,19:01～20:00,0.0532,0.0465,0.0492,
大田 (Ota),2013-02-25,18:01～19:00,0.0522,0.0461,0.0492,
大田 (Ota),2013-02-25,17:01～18:00,0.0532,0.0456,0.0498,
大田 (Ota),2013-02-25,16:01～17:00,0.0520,0.0459,0.0494,
大田 (Ota),2013-02-25,15:01～16:00,0.0525,0.0467,0.0499,
大田 (Ota),2013-02-25,14:01～15:00,0.0528,0.0468,0.0493,
大田 (Ota),2013-02-25,13:01～14:00,0.0529,0.0467,0.0502,
大田 (Ota),2013-02-25,12:01～13:00,0.0531,0.0466,0.0500,
大田 (Ota),2013-02-25,11:01～12:00,0.0545,0.0461,0.0499,
大田 (Ota),2013-02-25,10:01～11:00,0.0524,0.0473,0.0498,
大田 (Ota),2013-02-25,09:01～10:00,0.0537,0.0457,0.0494,
大田 (Ota),2013-02-25,08:01～09:00,0.0530,0.0468,0.0495,
大田 (Ota),2013-02-25,07:01～08:00,0.0522,0.0468,0.0495,
大田 (Ota),2013-02-25,06:01～07:00,0.0521,0.0457,0.0495,
大田 (Ota),2013-02-25,05:01～06:00,0.0520,0.0463,0.0489,
大田 (Ota),2013-02-25,04:01～05:00,0.0532,0.0443,0.0492,
大田 (Ota),2013-02-25,03:01～04:00,0.0534,0.0450,0.0496,
大田 (Ota),2013-02-25,02:01～03:00,0.0522,0.0461,0.0490,
大田 (Ota),2013-02-25,01:01～02:00,0.0517,0.0464,0.0489,
大田 (Ota),2013-02-25,00:01～01:00,0.0527,0.0467,0.0494,
